FENGYUN 1C DEB, 32152

Orbit data source: Space-Track

FENGYUN 1C DEB, 32152 is space debris in SSO originally from a launch on Mon, 10 May 1999 UTC launched from the Taiyaun Space Center, China (TSC). Fengyun 1C debris stems from the Chinese weather satellite Fengyun-1C, which was intentionally destroyed by a Chinese anti-satellite missile in 2007. This event dramatically increased the amount of space debris, with thousands of trackable fragments posing hazards to satellites and human spaceflight. The Fengyun 1C debris cloud has become a focal point in discussions about space sustainability and the need for international regulations to prevent the creation of new debris.

Loading next visibility...
Identifier
32152, 1999-025CSW
Orbit
SSO
Country
Flag of CNCN / PRC
Related business
Manufacturer
Unknown
Mission
Spacecraft
Bus & Motor
Unknown
Mass
Unknown
Launch date (UTC)
1999-05-10 (26 years ago)
Launch vehicle
Unknown
Launch site
Taiyaun Space Center, China (TSC)
Object type
Payload
Rocket body
Debris
Shape & HBR
Unknown shape, 0.1 m
Radar Cross Section
Small (<0.1 m²)

Expand to show TLE details & history
Last TLE update: 2 days ago

TLE from 2 days ago
0 FENGYUN 1C DEB
1 32152U 99025CSW 25308.71300434  .00005168  00000-0  11663-2 0  9997
2 32152  98.7588 107.9425 0055146 317.8814  41.8150 14.55824654620596
Epoch: 2025-11-04T17:06Z
TLE epoch observation values (Epoch: 2025-11-04T17:06:43.574Z)
Latitude
-0.00006°
Longitude
167.06487°
Altitude
680.621 km
Speed
7.532 km/s
True Right ascension
07h 11m 46s
True Declination
0° 00' 00"
Sunlit
Object was in daylight at epoch
Visualization orbit readout
Latitude
Unknown
Longitude
Unknown
Altitude
Unknown
Speed
Unknown
Apparent Right ascension
Unknown
Apparent Declination
Unknown
Sunlit
N/A
Visualization observer readout
Local Sidereal Time
11:11:05
Azimuth
Unknown
Elevation
Unknown
Doppler factor
Unknown
Orbital elements
Apogee altitude
742.855 km
Perigee altitude
664.747 km
Semi-major axis
7,081.938 km
Eccentricity
0.00551
Inclination
98.7588°
RAAN
107.9425°
Arg. of periapsis
317.8814°
True anomaly
42.23849°
Mean anomaly
41.815°
Eccentric anomaly
42.02653°
Mean motion
3.64179 °/min
Orbital period
98.85 mins
BSTAR
0.0011663
Loading maneuver chart data...
Computing Atmospheric mass density...

Documentation

Showing up to 5 results
|